Index of /20260506/WXO-DD/model_caps/3km/12/010
Name Last modified Size Description
Parent Directory -
20260506T12Z_MSC_CAPS_AbsoluteVorticity_IsbL-0250_RLatLon0.03_PT010H.grib2 2026-05-06 18:12 1.1M
20260506T12Z_MSC_CAPS_AbsoluteVorticity_IsbL-0500_RLatLon0.03_PT010H.grib2 2026-05-06 18:12 1.1M
20260506T12Z_MSC_CAPS_AbsoluteVorticity_IsbL-0700_RLatLon0.03_PT010H.grib2 2026-05-06 18:12 1.3M
20260506T12Z_MSC_CAPS_AbsoluteVorticity_IsbL-0850_RLatLon0.03_PT010H.grib2 2026-05-06 18:12 1.5M
20260506T12Z_MSC_CAPS_AbsoluteVorticity_IsbL-1000_RLatLon0.03_PT010H.grib2 2026-05-06 18:12 1.3M
20260506T12Z_MSC_CAPS_AirDensity_AGL-120m_RLatLon0.03_PT010H.grib2 2026-05-06 18:12 1.4M
20260506T12Z_MSC_CAPS_AirDensity_AGL-40m_RLatLon0.03_PT010H.grib2 2026-05-06 18:12 1.4M
20260506T12Z_MSC_CAPS_AirDensity_AGL-80m_RLatLon0.03_PT010H.grib2 2026-05-06 18:12 1.4M
20260506T12Z_MSC_CAPS_AirTemp_AGL-120m_RLatLon0.03_PT010H.grib2 2026-05-06 18:12 1.4M
20260506T12Z_MSC_CAPS_AirTemp_AGL-2m_RLatLon0.03_PT010H.grib2 2026-05-06 18:12 1.8M
20260506T12Z_MSC_CAPS_AirTemp_AGL-40m_RLatLon0.03_PT010H.grib2 2026-05-06 18:12 1.5M
20260506T12Z_MSC_CAPS_AirTemp_AGL-80m_RLatLon0.03_PT010H.grib2 2026-05-06 18:12 1.4M
20260506T12Z_MSC_CAPS_AirTemp_IsbL-0050_RLatLon0.03_PT010H.grib2 2026-05-06 18:12 689K
20260506T12Z_MSC_CAPS_AirTemp_IsbL-0100_RLatLon0.03_PT010H.grib2 2026-05-06 18:12 944K
20260506T12Z_MSC_CAPS_AirTemp_IsbL-0150_RLatLon0.03_PT010H.grib2 2026-05-06 18:12 743K
20260506T12Z_MSC_CAPS_AirTemp_IsbL-0175_RLatLon0.03_PT010H.grib2 2026-05-06 18:12 775K
20260506T12Z_MSC_CAPS_AirTemp_IsbL-0200_RLatLon0.03_PT010H.grib2 2026-05-06 18:12 802K
20260506T12Z_MSC_CAPS_AirTemp_IsbL-0225_RLatLon0.03_PT010H.grib2 2026-05-06 18:12 801K
20260506T12Z_MSC_CAPS_AirTemp_IsbL-0250_RLatLon0.03_PT010H.grib2 2026-05-06 18:12 1.0M
20260506T12Z_MSC_CAPS_AirTemp_IsbL-0275_RLatLon0.03_PT010H.grib2 2026-05-06 18:12 1.0M
20260506T12Z_MSC_CAPS_AirTemp_IsbL-0300_RLatLon0.03_PT010H.grib2 2026-05-06 18:12 1.0M
20260506T12Z_MSC_CAPS_AirTemp_IsbL-0350_RLatLon0.03_PT010H.grib2 2026-05-06 18:12 756K
20260506T12Z_MSC_CAPS_AirTemp_IsbL-0400_RLatLon0.03_PT010H.grib2 2026-05-06 18:12 759K
20260506T12Z_MSC_CAPS_AirTemp_IsbL-0450_RLatLon0.03_PT010H.grib2 2026-05-06 18:12 773K
20260506T12Z_MSC_CAPS_AirTemp_IsbL-0500_RLatLon0.03_PT010H.grib2 2026-05-06 18:12 786K
20260506T12Z_MSC_CAPS_AirTemp_IsbL-0550_RLatLon0.03_PT010H.grib2 2026-05-06 18:12 796K
20260506T12Z_MSC_CAPS_AirTemp_IsbL-0600_RLatLon0.03_PT010H.grib2 2026-05-06 18:12 812K
20260506T12Z_MSC_CAPS_AirTemp_IsbL-0650_RLatLon0.03_PT010H.grib2 2026-05-06 18:12 844K
20260506T12Z_MSC_CAPS_AirTemp_IsbL-0700_RLatLon0.03_PT010H.grib2 2026-05-06 18:12 884K
20260506T12Z_MSC_CAPS_AirTemp_IsbL-0750_RLatLon0.03_PT010H.grib2 2026-05-06 18:12 914K
20260506T12Z_MSC_CAPS_AirTemp_IsbL-0800_RLatLon0.03_PT010H.grib2 2026-05-06 18:12 1.1M
20260506T12Z_MSC_CAPS_AirTemp_IsbL-0850_RLatLon0.03_PT010H.grib2 2026-05-06 18:12 1.1M
20260506T12Z_MSC_CAPS_AirTemp_IsbL-0875_RLatLon0.03_PT010H.grib2 2026-05-06 18:12 1.1M
20260506T12Z_MSC_CAPS_AirTemp_IsbL-0900_RLatLon0.03_PT010H.grib2 2026-05-06 18:12 1.0M
20260506T12Z_MSC_CAPS_AirTemp_IsbL-0925_RLatLon0.03_PT010H.grib2 2026-05-06 18:12 1.0M
20260506T12Z_MSC_CAPS_AirTemp_IsbL-0950_RLatLon0.03_PT010H.grib2 2026-05-06 18:12 1.0M
20260506T12Z_MSC_CAPS_AirTemp_IsbL-0970_RLatLon0.03_PT010H.grib2 2026-05-06 18:12 1.1M
20260506T12Z_MSC_CAPS_AirTemp_IsbL-0985_RLatLon0.03_PT010H.grib2 2026-05-06 18:12 1.0M
20260506T12Z_MSC_CAPS_AirTemp_IsbL-1000_RLatLon0.03_PT010H.grib2 2026-05-06 18:12 1.0M
20260506T12Z_MSC_CAPS_AirTemp_IsbL-1015_RLatLon0.03_PT010H.grib2 2026-05-06 18:12 1.1M
20260506T12Z_MSC_CAPS_Albedo_Sfc_RLatLon0.03_PT010H.grib2 2026-05-06 18:12 2.7M
20260506T12Z_MSC_CAPS_CAPE_Sfc_RLatLon0.03_PT010H.grib2 2026-05-06 18:12 289K
20260506T12Z_MSC_CAPS_CloudWater_EAtm_RLatLon0.03_PT010H.grib2 2026-05-06 18:12 1.5M
20260506T12Z_MSC_CAPS_ConvectivePrecip-Accum_Sfc_RLatLon0.03_PT010H.grib2 2026-05-06 18:12 2.6M
20260506T12Z_MSC_CAPS_DewPointDepression_AGL-120m_RLatLon0.03_PT010H.grib2 2026-05-06 18:12 2.1M
20260506T12Z_MSC_CAPS_DewPointDepression_AGL-2m_RLatLon0.03_PT010H.grib2 2026-05-06 18:12 2.3M
20260506T12Z_MSC_CAPS_DewPointDepression_AGL-40m_RLatLon0.03_PT010H.grib2 2026-05-06 18:12 2.2M
20260506T12Z_MSC_CAPS_DewPointDepression_AGL-80m_RLatLon0.03_PT010H.grib2 2026-05-06 18:12 2.2M
20260506T12Z_MSC_CAPS_DewPointDepression_IsbL-0050_RLatLon0.03_PT010H.grib2 2026-05-06 18:12 4.2K
20260506T12Z_MSC_CAPS_DewPointDepression_IsbL-0100_RLatLon0.03_PT010H.grib2 2026-05-06 18:12 56K
20260506T12Z_MSC_CAPS_DewPointDepression_IsbL-0150_RLatLon0.03_PT010H.grib2 2026-05-06 18:12 38K
20260506T12Z_MSC_CAPS_DewPointDepression_IsbL-0175_RLatLon0.03_PT010H.grib2 2026-05-06 18:12 205K
20260506T12Z_MSC_CAPS_DewPointDepression_IsbL-0200_RLatLon0.03_PT010H.grib2 2026-05-06 18:12 407K
20260506T12Z_MSC_CAPS_DewPointDepression_IsbL-0225_RLatLon0.03_PT010H.grib2 2026-05-06 18:12 592K
20260506T12Z_MSC_CAPS_DewPointDepression_IsbL-0250_RLatLon0.03_PT010H.grib2 2026-05-06 18:12 811K
20260506T12Z_MSC_CAPS_DewPointDepression_IsbL-0275_RLatLon0.03_PT010H.grib2 2026-05-06 18:12 966K
20260506T12Z_MSC_CAPS_DewPointDepression_IsbL-0300_RLatLon0.03_PT010H.grib2 2026-05-06 18:12 1.0M
20260506T12Z_MSC_CAPS_DewPointDepression_IsbL-0350_RLatLon0.03_PT010H.grib2 2026-05-06 18:12 1.1M
20260506T12Z_MSC_CAPS_DewPointDepression_IsbL-0400_RLatLon0.03_PT010H.grib2 2026-05-06 18:12 1.1M
20260506T12Z_MSC_CAPS_DewPointDepression_IsbL-0450_RLatLon0.03_PT010H.grib2 2026-05-06 18:12 1.1M
20260506T12Z_MSC_CAPS_DewPointDepression_IsbL-0500_RLatLon0.03_PT010H.grib2 2026-05-06 18:12 1.1M
20260506T12Z_MSC_CAPS_DewPointDepression_IsbL-0550_RLatLon0.03_PT010H.grib2 2026-05-06 18:12 1.2M
20260506T12Z_MSC_CAPS_DewPointDepression_IsbL-0600_RLatLon0.03_PT010H.grib2 2026-05-06 18:12 1.2M
20260506T12Z_MSC_CAPS_DewPointDepression_IsbL-0650_RLatLon0.03_PT010H.grib2 2026-05-06 18:12 1.2M
20260506T12Z_MSC_CAPS_DewPointDepression_IsbL-0700_RLatLon0.03_PT010H.grib2 2026-05-06 18:12 1.3M
20260506T12Z_MSC_CAPS_DewPointDepression_IsbL-0750_RLatLon0.03_PT010H.grib2 2026-05-06 18:12 1.3M
20260506T12Z_MSC_CAPS_DewPointDepression_IsbL-0800_RLatLon0.03_PT010H.grib2 2026-05-06 18:12 1.3M
20260506T12Z_MSC_CAPS_DewPointDepression_IsbL-0850_RLatLon0.03_PT010H.grib2 2026-05-06 18:12 1.4M
20260506T12Z_MSC_CAPS_DewPointDepression_IsbL-0875_RLatLon0.03_PT010H.grib2 2026-05-06 18:12 1.4M
20260506T12Z_MSC_CAPS_DewPointDepression_IsbL-0900_RLatLon0.03_PT010H.grib2 2026-05-06 18:12 1.4M
20260506T12Z_MSC_CAPS_DewPointDepression_IsbL-0925_RLatLon0.03_PT010H.grib2 2026-05-06 18:12 1.4M
20260506T12Z_MSC_CAPS_DewPointDepression_IsbL-0950_RLatLon0.03_PT010H.grib2 2026-05-06 18:12 1.4M
20260506T12Z_MSC_CAPS_DewPointDepression_IsbL-0970_RLatLon0.03_PT010H.grib2 2026-05-06 18:12 1.4M
20260506T12Z_MSC_CAPS_DewPointDepression_IsbL-0985_RLatLon0.03_PT010H.grib2 2026-05-06 18:12 1.4M
20260506T12Z_MSC_CAPS_DewPointDepression_IsbL-1000_RLatLon0.03_PT010H.grib2 2026-05-06 18:12 1.4M
20260506T12Z_MSC_CAPS_DewPointDepression_IsbL-1015_RLatLon0.03_PT010H.grib2 2026-05-06 18:12 1.4M
20260506T12Z_MSC_CAPS_DewPoint_AGL-120m_RLatLon0.03_PT010H.grib2 2026-05-06 18:12 3.7M
20260506T12Z_MSC_CAPS_DewPoint_AGL-2m_RLatLon0.03_PT010H.grib2 2026-05-06 18:12 2.2M
20260506T12Z_MSC_CAPS_DewPoint_AGL-40m_RLatLon0.03_PT010H.grib2 2026-05-06 18:12 3.8M
20260506T12Z_MSC_CAPS_DewPoint_AGL-80m_RLatLon0.03_PT010H.grib2 2026-05-06 18:12 3.7M
20260506T12Z_MSC_CAPS_DownwardLongwaveRadiationFlux-Accum_Sfc_RLatLon0.03_PT010H.grib2 2026-05-06 18:12 2.4M
20260506T12Z_MSC_CAPS_DownwardShortwaveRadiationFlux-Accum_NTAtm_RLatLon0.03_PT010H.grib2 2026-05-06 18:12 478K
20260506T12Z_MSC_CAPS_DownwardShortwaveRadiationFlux-Accum_Sfc_RLatLon0.03_PT010H.grib2 2026-05-06 18:12 2.7M
20260506T12Z_MSC_CAPS_FreezingRain-Accum_Sfc_RLatLon0.03_PT010H.grib2 2026-05-06 18:12 332K
20260506T12Z_MSC_CAPS_GeopotentialHeight_IsbL-0050_RLatLon0.03_PT010H.grib2 2026-05-06 18:12 820K
20260506T12Z_MSC_CAPS_GeopotentialHeight_IsbL-0100_RLatLon0.03_PT010H.grib2 2026-05-06 18:12 736K
20260506T12Z_MSC_CAPS_GeopotentialHeight_IsbL-0150_RLatLon0.03_PT010H.grib2 2026-05-06 18:12 600K
20260506T12Z_MSC_CAPS_GeopotentialHeight_IsbL-0175_RLatLon0.03_PT010H.grib2 2026-05-06 18:12 715K
20260506T12Z_MSC_CAPS_GeopotentialHeight_IsbL-0200_RLatLon0.03_PT010H.grib2 2026-05-06 18:12 738K
20260506T12Z_MSC_CAPS_GeopotentialHeight_IsbL-0225_RLatLon0.03_PT010H.grib2 2026-05-06 18:12 753K
20260506T12Z_MSC_CAPS_GeopotentialHeight_IsbL-0250_RLatLon0.03_PT010H.grib2 2026-05-06 18:12 763K
20260506T12Z_MSC_CAPS_GeopotentialHeight_IsbL-0275_RLatLon0.03_PT010H.grib2 2026-05-06 18:12 770K
20260506T12Z_MSC_CAPS_GeopotentialHeight_IsbL-0300_RLatLon0.03_PT010H.grib2 2026-05-06 18:12 778K
20260506T12Z_MSC_CAPS_GeopotentialHeight_IsbL-0350_RLatLon0.03_PT010H.grib2 2026-05-06 18:12 780K
20260506T12Z_MSC_CAPS_GeopotentialHeight_IsbL-0400_RLatLon0.03_PT010H.grib2 2026-05-06 18:12 775K
20260506T12Z_MSC_CAPS_GeopotentialHeight_IsbL-0450_RLatLon0.03_PT010H.grib2 2026-05-06 18:12 769K
20260506T12Z_MSC_CAPS_GeopotentialHeight_IsbL-0500_RLatLon0.03_PT010H.grib2 2026-05-06 18:12 762K
20260506T12Z_MSC_CAPS_GeopotentialHeight_IsbL-0550_RLatLon0.03_PT010H.grib2 2026-05-06 18:12 752K
20260506T12Z_MSC_CAPS_GeopotentialHeight_IsbL-0600_RLatLon0.03_PT010H.grib2 2026-05-06 18:12 635K
20260506T12Z_MSC_CAPS_GeopotentialHeight_IsbL-0650_RLatLon0.03_PT010H.grib2 2026-05-06 18:12 634K
20260506T12Z_MSC_CAPS_GeopotentialHeight_IsbL-0700_RLatLon0.03_PT010H.grib2 2026-05-06 18:12 809K
20260506T12Z_MSC_CAPS_GeopotentialHeight_IsbL-0750_RLatLon0.03_PT010H.grib2 2026-05-06 18:12 809K
20260506T12Z_MSC_CAPS_GeopotentialHeight_IsbL-0800_RLatLon0.03_PT010H.grib2 2026-05-06 18:12 814K
20260506T12Z_MSC_CAPS_GeopotentialHeight_IsbL-0850_RLatLon0.03_PT010H.grib2 2026-05-06 18:12 818K
20260506T12Z_MSC_CAPS_GeopotentialHeight_IsbL-0875_RLatLon0.03_PT010H.grib2 2026-05-06 18:12 812K
20260506T12Z_MSC_CAPS_GeopotentialHeight_IsbL-0900_RLatLon0.03_PT010H.grib2 2026-05-06 18:12 833K
20260506T12Z_MSC_CAPS_GeopotentialHeight_IsbL-0925_RLatLon0.03_PT010H.grib2 2026-05-06 18:12 841K
20260506T12Z_MSC_CAPS_GeopotentialHeight_IsbL-0950_RLatLon0.03_PT010H.grib2 2026-05-06 18:12 850K
20260506T12Z_MSC_CAPS_GeopotentialHeight_IsbL-0970_RLatLon0.03_PT010H.grib2 2026-05-06 18:12 860K
20260506T12Z_MSC_CAPS_GeopotentialHeight_IsbL-0985_RLatLon0.03_PT010H.grib2 2026-05-06 18:12 867K
20260506T12Z_MSC_CAPS_GeopotentialHeight_IsbL-1000_RLatLon0.03_PT010H.grib2 2026-05-06 18:12 880K
20260506T12Z_MSC_CAPS_GeopotentialHeight_IsbL-1015_RLatLon0.03_PT010H.grib2 2026-05-06 18:12 891K
20260506T12Z_MSC_CAPS_GeopotentialHeight_Sfc_RLatLon0.03_PT010H.grib2 2026-05-06 18:12 1.0M
20260506T12Z_MSC_CAPS_IcePellets-Accum_Sfc_RLatLon0.03_PT010H.grib2 2026-05-06 18:12 22K
20260506T12Z_MSC_CAPS_LatentHeatNetFlux_Sfc_RLatLon0.03_PT010H.grib2 2026-05-06 18:12 2.0M
20260506T12Z_MSC_CAPS_LiftedIndex-MU-VT_IsbL-0500_RLatLon0.03_PT010H.grib2 2026-05-06 18:12 3.3M
20260506T12Z_MSC_CAPS_MixedLayerThickness_Sfc_RLatLon0.03_PT010H.nc 2026-05-06 18:13 16M
20260506T12Z_MSC_CAPS_NetLongwaveRadiationFlux-Accum_Sfc_RLatLon0.03_PT010H.grib2 2026-05-06 18:12 3.1M
20260506T12Z_MSC_CAPS_NetShortwaveRadiationFlux-Accum_Sfc_RLatLon0.03_PT010H.grib2 2026-05-06 18:12 2.7M
20260506T12Z_MSC_CAPS_PlanetaryBoundaryLayerHeight_Sfc_RLatLon0.03_PT010H.grib2 2026-05-06 18:12 3.0M
20260506T12Z_MSC_CAPS_Precip-Accum_Sfc_RLatLon0.03_PT010H.grib2 2026-05-06 18:12 3.7M
20260506T12Z_MSC_CAPS_PrecipRate_Sfc_RLatLon0.03_PT010H.grib2 2026-05-06 18:12 387K
20260506T12Z_MSC_CAPS_PrecipType-Instant_Sfc_RLatLon0.03_PT010H.grib2 2026-05-06 18:12 1.8M
20260506T12Z_MSC_CAPS_Pressure_MSL_RLatLon0.03_PT010H.grib2 2026-05-06 18:12 766K
20260506T12Z_MSC_CAPS_Pressure_Sfc_RLatLon0.03_PT010H.grib2 2026-05-06 18:12 1.2M
20260506T12Z_MSC_CAPS_RadiativeTemp_Sfc_RLatLon0.03_PT010H.grib2 2026-05-06 18:12 2.1M
20260506T12Z_MSC_CAPS_Rain-Accum_Sfc_RLatLon0.03_PT010H.grib2 2026-05-06 18:12 1.7M
20260506T12Z_MSC_CAPS_RelativeHumidity_AGL-120m_RLatLon0.03_PT010H.grib2 2026-05-06 18:12 2.9M
20260506T12Z_MSC_CAPS_RelativeHumidity_AGL-2m_RLatLon0.03_PT010H.grib2 2026-05-06 18:12 3.0M
20260506T12Z_MSC_CAPS_RelativeHumidity_AGL-40m_RLatLon0.03_PT010H.grib2 2026-05-06 18:12 2.9M
20260506T12Z_MSC_CAPS_RelativeHumidity_AGL-80m_RLatLon0.03_PT010H.grib2 2026-05-06 18:12 2.9M
20260506T12Z_MSC_CAPS_RelativeHumidity_IsbL-0050_RLatLon0.03_PT010H.grib2 2026-05-06 18:12 710K
20260506T12Z_MSC_CAPS_RelativeHumidity_IsbL-0100_RLatLon0.03_PT010H.grib2 2026-05-06 18:12 1.1M
20260506T12Z_MSC_CAPS_RelativeHumidity_IsbL-0150_RLatLon0.03_PT010H.grib2 2026-05-06 18:12 460K
20260506T12Z_MSC_CAPS_RelativeHumidity_IsbL-0175_RLatLon0.03_PT010H.grib2 2026-05-06 18:12 463K
20260506T12Z_MSC_CAPS_RelativeHumidity_IsbL-0200_RLatLon0.03_PT010H.grib2 2026-05-06 18:12 645K
20260506T12Z_MSC_CAPS_RelativeHumidity_IsbL-0225_RLatLon0.03_PT010H.grib2 2026-05-06 18:12 879K
20260506T12Z_MSC_CAPS_RelativeHumidity_IsbL-0250_RLatLon0.03_PT010H.grib2 2026-05-06 18:12 1.1M
20260506T12Z_MSC_CAPS_RelativeHumidity_IsbL-0275_RLatLon0.03_PT010H.grib2 2026-05-06 18:12 1.4M
20260506T12Z_MSC_CAPS_RelativeHumidity_IsbL-0300_RLatLon0.03_PT010H.grib2 2026-05-06 18:12 1.7M
20260506T12Z_MSC_CAPS_RelativeHumidity_IsbL-0350_RLatLon0.03_PT010H.grib2 2026-05-06 18:12 1.9M
20260506T12Z_MSC_CAPS_RelativeHumidity_IsbL-0400_RLatLon0.03_PT010H.grib2 2026-05-06 18:12 2.1M
20260506T12Z_MSC_CAPS_RelativeHumidity_IsbL-0450_RLatLon0.03_PT010H.grib2 2026-05-06 18:12 2.0M
20260506T12Z_MSC_CAPS_RelativeHumidity_IsbL-0500_RLatLon0.03_PT010H.grib2 2026-05-06 18:12 2.1M
20260506T12Z_MSC_CAPS_RelativeHumidity_IsbL-0550_RLatLon0.03_PT010H.grib2 2026-05-06 18:12 2.0M
20260506T12Z_MSC_CAPS_RelativeHumidity_IsbL-0600_RLatLon0.03_PT010H.grib2 2026-05-06 18:12 2.0M
20260506T12Z_MSC_CAPS_RelativeHumidity_IsbL-0650_RLatLon0.03_PT010H.grib2 2026-05-06 18:12 2.2M
20260506T12Z_MSC_CAPS_RelativeHumidity_IsbL-0700_RLatLon0.03_PT010H.grib2 2026-05-06 18:12 2.3M
20260506T12Z_MSC_CAPS_RelativeHumidity_IsbL-0750_RLatLon0.03_PT010H.grib2 2026-05-06 18:12 2.3M
20260506T12Z_MSC_CAPS_RelativeHumidity_IsbL-0800_RLatLon0.03_PT010H.grib2 2026-05-06 18:12 2.4M
20260506T12Z_MSC_CAPS_RelativeHumidity_IsbL-0850_RLatLon0.03_PT010H.grib2 2026-05-06 18:12 2.6M
20260506T12Z_MSC_CAPS_RelativeHumidity_IsbL-0875_RLatLon0.03_PT010H.grib2 2026-05-06 18:12 2.7M
20260506T12Z_MSC_CAPS_RelativeHumidity_IsbL-0900_RLatLon0.03_PT010H.grib2 2026-05-06 18:12 2.7M
20260506T12Z_MSC_CAPS_RelativeHumidity_IsbL-0925_RLatLon0.03_PT010H.grib2 2026-05-06 18:12 2.7M
20260506T12Z_MSC_CAPS_RelativeHumidity_IsbL-0950_RLatLon0.03_PT010H.grib2 2026-05-06 18:12 2.8M
20260506T12Z_MSC_CAPS_RelativeHumidity_IsbL-0970_RLatLon0.03_PT010H.grib2 2026-05-06 18:12 2.8M
20260506T12Z_MSC_CAPS_RelativeHumidity_IsbL-0985_RLatLon0.03_PT010H.grib2 2026-05-06 18:12 2.9M
20260506T12Z_MSC_CAPS_RelativeHumidity_IsbL-1000_RLatLon0.03_PT010H.grib2 2026-05-06 18:12 2.9M
20260506T12Z_MSC_CAPS_RelativeHumidity_IsbL-1015_RLatLon0.03_PT010H.grib2 2026-05-06 18:12 2.9M
20260506T12Z_MSC_CAPS_Runoff-Accum_Sfc_RLatLon0.03_PT010H.grib2 2026-05-06 18:12 254K
20260506T12Z_MSC_CAPS_SeaIceAreaFraction_Sfc_RLatLon0.03_PT010H.nc 2026-05-06 18:13 15M
20260506T12Z_MSC_CAPS_SeaIceCompressiveStrength_Sfc_RLatLon0.03_PT010H.nc 2026-05-06 18:13 15M
20260506T12Z_MSC_CAPS_SeaIceDivergence_Sfc_RLatLon0.03_PT010H.nc 2026-05-06 18:13 15M
20260506T12Z_MSC_CAPS_SeaIceInternalPressure_Sfc_RLatLon0.03_PT010H.nc 2026-05-06 18:13 15M
20260506T12Z_MSC_CAPS_SeaIceShear_Sfc_RLatLon0.03_PT010H.nc 2026-05-06 18:13 15M
20260506T12Z_MSC_CAPS_SeaIceSnowTemp_Sfc_RLatLon0.03_PT010H.nc 2026-05-06 18:13 14M
20260506T12Z_MSC_CAPS_SeaIceSnowVolume_Sfc_RLatLon0.03_PT010H.nc 2026-05-06 18:13 15M
20260506T12Z_MSC_CAPS_SeaIceVelocityX_Sfc_RLatLon0.03_PT010H.nc 2026-05-06 18:13 15M
20260506T12Z_MSC_CAPS_SeaIceVelocityY_Sfc_RLatLon0.03_PT010H.nc 2026-05-06 18:13 15M
20260506T12Z_MSC_CAPS_SeaIceVolume_Sfc_RLatLon0.03_PT010H.nc 2026-05-06 18:13 15M
20260506T12Z_MSC_CAPS_SeaSurfaceHeight_Sfc_RLatLon0.03_PT010H.nc 2026-05-06 18:13 16M
20260506T12Z_MSC_CAPS_SeaWaterSalinity_DBS-0.5m_RLatLon0.03_PT010H.nc 2026-05-06 18:13 16M
20260506T12Z_MSC_CAPS_SeaWaterSalinity_DBS-all_RLatLon0.03_PT010H.nc 2026-05-06 18:13 107M
20260506T12Z_MSC_CAPS_SeaWaterTemp_DBS-0.5m_RLatLon0.03_PT010H.nc 2026-05-06 18:13 15M
20260506T12Z_MSC_CAPS_SeaWaterTemp_DBS-all_RLatLon0.03_PT010H.nc 2026-05-06 18:13 88M
20260506T12Z_MSC_CAPS_SeaWaterVelocityX_DBS-0.5m_RLatLon0.03_PT010H.nc 2026-05-06 18:13 17M
20260506T12Z_MSC_CAPS_SeaWaterVelocityX_DBS-all_RLatLon0.03_PT010H.nc 2026-05-06 18:13 205M
20260506T12Z_MSC_CAPS_SeaWaterVelocityY_DBS-0.5m_RLatLon0.03_PT010H.nc 2026-05-06 18:13 18M
20260506T12Z_MSC_CAPS_SeaWaterVelocityY_DBS-all_RLatLon0.03_PT010H.nc 2026-05-06 18:13 219M
20260506T12Z_MSC_CAPS_SensibleHeatNetFlux_Sfc_RLatLon0.03_PT010H.grib2 2026-05-06 18:12 2.2M
20260506T12Z_MSC_CAPS_ShowalterIndex_IsbL-0500_RLatLon0.03_PT010H.grib2 2026-05-06 18:12 4.3M
20260506T12Z_MSC_CAPS_Snow-Accum_Sfc_RLatLon0.03_PT010H.grib2 2026-05-06 18:12 2.7M
20260506T12Z_MSC_CAPS_SnowDensity_Sfc_RLatLon0.03_PT010H.grib2 2026-05-06 18:12 1.2M
20260506T12Z_MSC_CAPS_SnowDepthWaterEquivalent_Sfc_RLatLon0.03_PT010H.grib2 2026-05-06 18:12 647K
20260506T12Z_MSC_CAPS_SnowDepth_Sfc_RLatLon0.03_PT010H.grib2 2026-05-06 18:12 1.1M
20260506T12Z_MSC_CAPS_SoilTemp_DBS-0to10cm_RLatLon0.03_PT010H.grib2 2026-05-06 18:12 1.5M
20260506T12Z_MSC_CAPS_SoilTemp_Sfc_RLatLon0.03_PT010H.grib2 2026-05-06 18:12 1.9M
20260506T12Z_MSC_CAPS_SoilVolumetricIceContent_Sfc_RLatLon0.03_PT010H.grib2 2026-05-06 18:12 1.3M
20260506T12Z_MSC_CAPS_SoilVolumetricWaterContent_DBS-0to10cm_RLatLon0.03_PT010H.grib2 2026-05-06 18:12 1.3M
20260506T12Z_MSC_CAPS_SoilVolumetricWaterContent_DBS-0to1cm_RLatLon0.03_PT010H.grib2 2026-05-06 18:12 1.7M
20260506T12Z_MSC_CAPS_SpecificHumidity_AGL-120m_RLatLon0.03_PT010H.grib2 2026-05-06 18:12 1.9M
20260506T12Z_MSC_CAPS_SpecificHumidity_AGL-2m_RLatLon0.03_PT010H.grib2 2026-05-06 18:12 2.2M
20260506T12Z_MSC_CAPS_SpecificHumidity_AGL-40m_RLatLon0.03_PT010H.grib2 2026-05-06 18:12 2.0M
20260506T12Z_MSC_CAPS_SpecificHumidity_AGL-80m_RLatLon0.03_PT010H.grib2 2026-05-06 18:12 1.9M
20260506T12Z_MSC_CAPS_SpecificHumidity_IsbL-0050_RLatLon0.03_PT010H.grib2 2026-05-06 18:12 882K
20260506T12Z_MSC_CAPS_SpecificHumidity_IsbL-0100_RLatLon0.03_PT010H.grib2 2026-05-06 18:12 1.1M
20260506T12Z_MSC_CAPS_SpecificHumidity_IsbL-0150_RLatLon0.03_PT010H.grib2 2026-05-06 18:12 741K
20260506T12Z_MSC_CAPS_SpecificHumidity_IsbL-0175_RLatLon0.03_PT010H.grib2 2026-05-06 18:12 1.0M
20260506T12Z_MSC_CAPS_SpecificHumidity_IsbL-0200_RLatLon0.03_PT010H.grib2 2026-05-06 18:12 858K
20260506T12Z_MSC_CAPS_SpecificHumidity_IsbL-0225_RLatLon0.03_PT010H.grib2 2026-05-06 18:12 825K
20260506T12Z_MSC_CAPS_SpecificHumidity_IsbL-0250_RLatLon0.03_PT010H.grib2 2026-05-06 18:12 829K
20260506T12Z_MSC_CAPS_SpecificHumidity_IsbL-0275_RLatLon0.03_PT010H.grib2 2026-05-06 18:12 1.1M
20260506T12Z_MSC_CAPS_SpecificHumidity_IsbL-0300_RLatLon0.03_PT010H.grib2 2026-05-06 18:12 1.0M
20260506T12Z_MSC_CAPS_SpecificHumidity_IsbL-0350_RLatLon0.03_PT010H.grib2 2026-05-06 18:12 1.0M
20260506T12Z_MSC_CAPS_SpecificHumidity_IsbL-0400_RLatLon0.03_PT010H.grib2 2026-05-06 18:12 1.0M
20260506T12Z_MSC_CAPS_SpecificHumidity_IsbL-0450_RLatLon0.03_PT010H.grib2 2026-05-06 18:12 1.1M
20260506T12Z_MSC_CAPS_SpecificHumidity_IsbL-0500_RLatLon0.03_PT010H.grib2 2026-05-06 18:12 1.0M
20260506T12Z_MSC_CAPS_SpecificHumidity_IsbL-0550_RLatLon0.03_PT010H.grib2 2026-05-06 18:12 1.2M
20260506T12Z_MSC_CAPS_SpecificHumidity_IsbL-0600_RLatLon0.03_PT010H.grib2 2026-05-06 18:12 1.3M
20260506T12Z_MSC_CAPS_SpecificHumidity_IsbL-0650_RLatLon0.03_PT010H.grib2 2026-05-06 18:12 1.5M
20260506T12Z_MSC_CAPS_SpecificHumidity_IsbL-0700_RLatLon0.03_PT010H.grib2 2026-05-06 18:12 1.3M
20260506T12Z_MSC_CAPS_SpecificHumidity_IsbL-0750_RLatLon0.03_PT010H.grib2 2026-05-06 18:12 1.4M
20260506T12Z_MSC_CAPS_SpecificHumidity_IsbL-0800_RLatLon0.03_PT010H.grib2 2026-05-06 18:12 1.5M
20260506T12Z_MSC_CAPS_SpecificHumidity_IsbL-0850_RLatLon0.03_PT010H.grib2 2026-05-06 18:12 1.8M
20260506T12Z_MSC_CAPS_SpecificHumidity_IsbL-0875_RLatLon0.03_PT010H.grib2 2026-05-06 18:12 1.8M
20260506T12Z_MSC_CAPS_SpecificHumidity_IsbL-0900_RLatLon0.03_PT010H.grib2 2026-05-06 18:12 1.9M
20260506T12Z_MSC_CAPS_SpecificHumidity_IsbL-0925_RLatLon0.03_PT010H.grib2 2026-05-06 18:12 2.0M
20260506T12Z_MSC_CAPS_SpecificHumidity_IsbL-0950_RLatLon0.03_PT010H.grib2 2026-05-06 18:12 2.0M
20260506T12Z_MSC_CAPS_SpecificHumidity_IsbL-0970_RLatLon0.03_PT010H.grib2 2026-05-06 18:12 2.1M
20260506T12Z_MSC_CAPS_SpecificHumidity_IsbL-0985_RLatLon0.03_PT010H.grib2 2026-05-06 18:12 2.1M
20260506T12Z_MSC_CAPS_SpecificHumidity_IsbL-1000_RLatLon0.03_PT010H.grib2 2026-05-06 18:12 2.2M
20260506T12Z_MSC_CAPS_SpecificHumidity_IsbL-1015_RLatLon0.03_PT010H.grib2 2026-05-06 18:12 2.2M
20260506T12Z_MSC_CAPS_SpecificHumidity_Sfc_RLatLon0.03_PT010H.grib2 2026-05-06 18:12 2.1M
20260506T12Z_MSC_CAPS_StormRelativeHelicity_Sfc_RLatLon0.03_PT010H.grib2 2026-05-06 18:12 3.2M
20260506T12Z_MSC_CAPS_Thickness_IsbL-1000to0500_RLatLon0.03_PT010H.grib2 2026-05-06 18:12 417K
20260506T12Z_MSC_CAPS_TotalCloudCover_Sfc_RLatLon0.03_PT010H.grib2 2026-05-06 18:12 3.6M
20260506T12Z_MSC_CAPS_TurboclineDepth_Sfc_RLatLon0.03_PT010H.nc 2026-05-06 18:13 16M
20260506T12Z_MSC_CAPS_UpwardLongwaveRadiationFlux_NTAtm_RLatLon0.03_PT010H.grib2 2026-05-06 18:12 2.9M
20260506T12Z_MSC_CAPS_UpwardShortwaveRadiationFlux_NTAtm_RLatLon0.03_PT010H.grib2 2026-05-06 18:12 2.4M
20260506T12Z_MSC_CAPS_VerticalVelocity_IsbL-0250_RLatLon0.03_PT010H.grib2 2026-05-06 18:12 1.2M
20260506T12Z_MSC_CAPS_VerticalVelocity_IsbL-0500_RLatLon0.03_PT010H.grib2 2026-05-06 18:12 1.2M
20260506T12Z_MSC_CAPS_VerticalVelocity_IsbL-0700_RLatLon0.03_PT010H.grib2 2026-05-06 18:12 1.3M
20260506T12Z_MSC_CAPS_VerticalVelocity_IsbL-0850_RLatLon0.03_PT010H.grib2 2026-05-06 18:12 1.4M
20260506T12Z_MSC_CAPS_VerticalVelocity_IsbL-1000_RLatLon0.03_PT010H.grib2 2026-05-06 18:12 1.3M
20260506T12Z_MSC_CAPS_WindDir_AGL-10m_RLatLon0.03_PT010H.grib2 2026-05-06 18:12 2.4M
20260506T12Z_MSC_CAPS_WindDir_AGL-120m_RLatLon0.03_PT010H.grib2 2026-05-06 18:12 1.3M
20260506T12Z_MSC_CAPS_WindDir_AGL-40m_RLatLon0.03_PT010H.grib2 2026-05-06 18:12 1.4M
20260506T12Z_MSC_CAPS_WindDir_AGL-80m_RLatLon0.03_PT010H.grib2 2026-05-06 18:12 1.3M
20260506T12Z_MSC_CAPS_WindDir_IsbL-0050_RLatLon0.03_PT010H.grib2 2026-05-06 18:12 1.0M
20260506T12Z_MSC_CAPS_WindDir_IsbL-0100_RLatLon0.03_PT010H.grib2 2026-05-06 18:12 1.0M
20260506T12Z_MSC_CAPS_WindDir_IsbL-0150_RLatLon0.03_PT010H.grib2 2026-05-06 18:12 1.0M
20260506T12Z_MSC_CAPS_WindDir_IsbL-0175_RLatLon0.03_PT010H.grib2 2026-05-06 18:12 1.0M
20260506T12Z_MSC_CAPS_WindDir_IsbL-0200_RLatLon0.03_PT010H.grib2 2026-05-06 18:12 1.2M
20260506T12Z_MSC_CAPS_WindDir_IsbL-0225_RLatLon0.03_PT010H.grib2 2026-05-06 18:12 1.1M
20260506T12Z_MSC_CAPS_WindDir_IsbL-0250_RLatLon0.03_PT010H.grib2 2026-05-06 18:12 1.1M
20260506T12Z_MSC_CAPS_WindDir_IsbL-0275_RLatLon0.03_PT010H.grib2 2026-05-06 18:12 1.1M
20260506T12Z_MSC_CAPS_WindDir_IsbL-0300_RLatLon0.03_PT010H.grib2 2026-05-06 18:12 1.1M
20260506T12Z_MSC_CAPS_WindDir_IsbL-0350_RLatLon0.03_PT010H.grib2 2026-05-06 18:12 1.1M
20260506T12Z_MSC_CAPS_WindDir_IsbL-0400_RLatLon0.03_PT010H.grib2 2026-05-06 18:12 1.2M
20260506T12Z_MSC_CAPS_WindDir_IsbL-0450_RLatLon0.03_PT010H.grib2 2026-05-06 18:12 1.2M
20260506T12Z_MSC_CAPS_WindDir_IsbL-0500_RLatLon0.03_PT010H.grib2 2026-05-06 18:12 1.3M
20260506T12Z_MSC_CAPS_WindDir_IsbL-0550_RLatLon0.03_PT010H.grib2 2026-05-06 18:12 1.2M
20260506T12Z_MSC_CAPS_WindDir_IsbL-0600_RLatLon0.03_PT010H.grib2 2026-05-06 18:12 1.3M
20260506T12Z_MSC_CAPS_WindDir_IsbL-0650_RLatLon0.03_PT010H.grib2 2026-05-06 18:12 1.3M
20260506T12Z_MSC_CAPS_WindDir_IsbL-0700_RLatLon0.03_PT010H.grib2 2026-05-06 18:12 1.4M
20260506T12Z_MSC_CAPS_WindDir_IsbL-0750_RLatLon0.03_PT010H.grib2 2026-05-06 18:12 1.6M
20260506T12Z_MSC_CAPS_WindDir_IsbL-0800_RLatLon0.03_PT010H.grib2 2026-05-06 18:12 1.7M
20260506T12Z_MSC_CAPS_WindDir_IsbL-0850_RLatLon0.03_PT010H.grib2 2026-05-06 18:12 1.8M
20260506T12Z_MSC_CAPS_WindDir_IsbL-0875_RLatLon0.03_PT010H.grib2 2026-05-06 18:12 1.9M
20260506T12Z_MSC_CAPS_WindDir_IsbL-0900_RLatLon0.03_PT010H.grib2 2026-05-06 18:12 1.9M
20260506T12Z_MSC_CAPS_WindDir_IsbL-0925_RLatLon0.03_PT010H.grib2 2026-05-06 18:12 2.0M
20260506T12Z_MSC_CAPS_WindDir_IsbL-0950_RLatLon0.03_PT010H.grib2 2026-05-06 18:12 2.0M
20260506T12Z_MSC_CAPS_WindDir_IsbL-0970_RLatLon0.03_PT010H.grib2 2026-05-06 18:12 2.1M
20260506T12Z_MSC_CAPS_WindDir_IsbL-0985_RLatLon0.03_PT010H.grib2 2026-05-06 18:12 2.2M
20260506T12Z_MSC_CAPS_WindDir_IsbL-1000_RLatLon0.03_PT010H.grib2 2026-05-06 18:12 2.3M
20260506T12Z_MSC_CAPS_WindDir_IsbL-1015_RLatLon0.03_PT010H.grib2 2026-05-06 18:12 2.4M
20260506T12Z_MSC_CAPS_WindGust-Max_AGL-10m_RLatLon0.03_PT010H.grib2 2026-05-06 18:12 2.5M
20260506T12Z_MSC_CAPS_WindGust-Min_AGL-10m_RLatLon0.03_PT010H.grib2 2026-05-06 18:12 2.5M
20260506T12Z_MSC_CAPS_WindGust_AGL-10m_RLatLon0.03_PT010H.grib2 2026-05-06 18:12 2.5M
20260506T12Z_MSC_CAPS_WindSpeed_AGL-10m_RLatLon0.03_PT010H.grib2 2026-05-06 18:12 2.1M
20260506T12Z_MSC_CAPS_WindSpeed_AGL-120m_RLatLon0.03_PT010H.grib2 2026-05-06 18:12 1.1M
20260506T12Z_MSC_CAPS_WindSpeed_AGL-40m_RLatLon0.03_PT010H.grib2 2026-05-06 18:12 1.2M
20260506T12Z_MSC_CAPS_WindSpeed_AGL-80m_RLatLon0.03_PT010H.grib2 2026-05-06 18:12 1.1M
20260506T12Z_MSC_CAPS_WindSpeed_IsbL-0050_RLatLon0.03_PT010H.grib2 2026-05-06 18:12 960K
20260506T12Z_MSC_CAPS_WindSpeed_IsbL-0100_RLatLon0.03_PT010H.grib2 2026-05-06 18:12 1.3M
20260506T12Z_MSC_CAPS_WindSpeed_IsbL-0150_RLatLon0.03_PT010H.grib2 2026-05-06 18:12 1.0M
20260506T12Z_MSC_CAPS_WindSpeed_IsbL-0175_RLatLon0.03_PT010H.grib2 2026-05-06 18:12 1.1M
20260506T12Z_MSC_CAPS_WindSpeed_IsbL-0200_RLatLon0.03_PT010H.grib2 2026-05-06 18:12 1.2M
20260506T12Z_MSC_CAPS_WindSpeed_IsbL-0225_RLatLon0.03_PT010H.grib2 2026-05-06 18:12 959K
20260506T12Z_MSC_CAPS_WindSpeed_IsbL-0250_RLatLon0.03_PT010H.grib2 2026-05-06 18:12 1.0M
20260506T12Z_MSC_CAPS_WindSpeed_IsbL-0275_RLatLon0.03_PT010H.grib2 2026-05-06 18:12 1.0M
20260506T12Z_MSC_CAPS_WindSpeed_IsbL-0300_RLatLon0.03_PT010H.grib2 2026-05-06 18:12 1.0M
20260506T12Z_MSC_CAPS_WindSpeed_IsbL-0350_RLatLon0.03_PT010H.grib2 2026-05-06 18:12 1.0M
20260506T12Z_MSC_CAPS_WindSpeed_IsbL-0400_RLatLon0.03_PT010H.grib2 2026-05-06 18:12 1.0M
20260506T12Z_MSC_CAPS_WindSpeed_IsbL-0450_RLatLon0.03_PT010H.grib2 2026-05-06 18:12 1.3M
20260506T12Z_MSC_CAPS_WindSpeed_IsbL-0500_RLatLon0.03_PT010H.grib2 2026-05-06 18:12 1.4M
20260506T12Z_MSC_CAPS_WindSpeed_IsbL-0550_RLatLon0.03_PT010H.grib2 2026-05-06 18:12 1.4M
20260506T12Z_MSC_CAPS_WindSpeed_IsbL-0600_RLatLon0.03_PT010H.grib2 2026-05-06 18:12 1.4M
20260506T12Z_MSC_CAPS_WindSpeed_IsbL-0650_RLatLon0.03_PT010H.grib2 2026-05-06 18:12 1.4M
20260506T12Z_MSC_CAPS_WindSpeed_IsbL-0700_RLatLon0.03_PT010H.grib2 2026-05-06 18:12 1.5M
20260506T12Z_MSC_CAPS_WindSpeed_IsbL-0750_RLatLon0.03_PT010H.grib2 2026-05-06 18:12 1.6M
20260506T12Z_MSC_CAPS_WindSpeed_IsbL-0800_RLatLon0.03_PT010H.grib2 2026-05-06 18:12 1.6M
20260506T12Z_MSC_CAPS_WindSpeed_IsbL-0850_RLatLon0.03_PT010H.grib2 2026-05-06 18:12 1.7M
20260506T12Z_MSC_CAPS_WindSpeed_IsbL-0875_RLatLon0.03_PT010H.grib2 2026-05-06 18:12 1.8M
20260506T12Z_MSC_CAPS_WindSpeed_IsbL-0900_RLatLon0.03_PT010H.grib2 2026-05-06 18:12 1.8M
20260506T12Z_MSC_CAPS_WindSpeed_IsbL-0925_RLatLon0.03_PT010H.grib2 2026-05-06 18:12 1.9M
20260506T12Z_MSC_CAPS_WindSpeed_IsbL-0950_RLatLon0.03_PT010H.grib2 2026-05-06 18:12 1.9M
20260506T12Z_MSC_CAPS_WindSpeed_IsbL-0970_RLatLon0.03_PT010H.grib2 2026-05-06 18:12 2.0M
20260506T12Z_MSC_CAPS_WindSpeed_IsbL-0985_RLatLon0.03_PT010H.grib2 2026-05-06 18:12 2.0M
20260506T12Z_MSC_CAPS_WindSpeed_IsbL-1000_RLatLon0.03_PT010H.grib2 2026-05-06 18:12 2.1M
20260506T12Z_MSC_CAPS_WindSpeed_IsbL-1015_RLatLon0.03_PT010H.grib2 2026-05-06 18:12 2.1M
20260506T12Z_MSC_CAPS_WindU_AGL-10m_RLatLon0.03_PT010H.grib2 2026-05-06 18:12 1.9M
20260506T12Z_MSC_CAPS_WindU_AGL-120m_RLatLon0.03_PT010H.grib2 2026-05-06 18:12 898K
20260506T12Z_MSC_CAPS_WindU_AGL-40m_RLatLon0.03_PT010H.grib2 2026-05-06 18:12 1.2M
20260506T12Z_MSC_CAPS_WindU_AGL-80m_RLatLon0.03_PT010H.grib2 2026-05-06 18:12 1.2M
20260506T12Z_MSC_CAPS_WindU_IsbL-0050_RLatLon0.03_PT010H.grib2 2026-05-06 18:12 720K
20260506T12Z_MSC_CAPS_WindU_IsbL-0100_RLatLon0.03_PT010H.grib2 2026-05-06 18:12 957K
20260506T12Z_MSC_CAPS_WindU_IsbL-0150_RLatLon0.03_PT010H.grib2 2026-05-06 18:12 920K
20260506T12Z_MSC_CAPS_WindU_IsbL-0175_RLatLon0.03_PT010H.grib2 2026-05-06 18:12 732K
20260506T12Z_MSC_CAPS_WindU_IsbL-0200_RLatLon0.03_PT010H.grib2 2026-05-06 18:12 884K
20260506T12Z_MSC_CAPS_WindU_IsbL-0225_RLatLon0.03_PT010H.grib2 2026-05-06 18:12 900K
20260506T12Z_MSC_CAPS_WindU_IsbL-0250_RLatLon0.03_PT010H.grib2 2026-05-06 18:12 920K
20260506T12Z_MSC_CAPS_WindU_IsbL-0275_RLatLon0.03_PT010H.grib2 2026-05-06 18:12 712K
20260506T12Z_MSC_CAPS_WindU_IsbL-0300_RLatLon0.03_PT010H.grib2 2026-05-06 18:12 720K
20260506T12Z_MSC_CAPS_WindU_IsbL-0350_RLatLon0.03_PT010H.grib2 2026-05-06 18:12 950K
20260506T12Z_MSC_CAPS_WindU_IsbL-0400_RLatLon0.03_PT010H.grib2 2026-05-06 18:12 956K
20260506T12Z_MSC_CAPS_WindU_IsbL-0450_RLatLon0.03_PT010H.grib2 2026-05-06 18:12 970K
20260506T12Z_MSC_CAPS_WindU_IsbL-0500_RLatLon0.03_PT010H.grib2 2026-05-06 18:12 1.0M
20260506T12Z_MSC_CAPS_WindU_IsbL-0550_RLatLon0.03_PT010H.grib2 2026-05-06 18:12 902K
20260506T12Z_MSC_CAPS_WindU_IsbL-0600_RLatLon0.03_PT010H.grib2 2026-05-06 18:12 931K
20260506T12Z_MSC_CAPS_WindU_IsbL-0650_RLatLon0.03_PT010H.grib2 2026-05-06 18:12 970K
20260506T12Z_MSC_CAPS_WindU_IsbL-0700_RLatLon0.03_PT010H.grib2 2026-05-06 18:12 1.0M
20260506T12Z_MSC_CAPS_WindU_IsbL-0750_RLatLon0.03_PT010H.grib2 2026-05-06 18:12 1.1M
20260506T12Z_MSC_CAPS_WindU_IsbL-0800_RLatLon0.03_PT010H.grib2 2026-05-06 18:12 1.1M
20260506T12Z_MSC_CAPS_WindU_IsbL-0850_RLatLon0.03_PT010H.grib2 2026-05-06 18:12 1.2M
20260506T12Z_MSC_CAPS_WindU_IsbL-0875_RLatLon0.03_PT010H.grib2 2026-05-06 18:12 1.2M
20260506T12Z_MSC_CAPS_WindU_IsbL-0900_RLatLon0.03_PT010H.grib2 2026-05-06 18:12 1.3M
20260506T12Z_MSC_CAPS_WindU_IsbL-0925_RLatLon0.03_PT010H.grib2 2026-05-06 18:12 1.3M
20260506T12Z_MSC_CAPS_WindU_IsbL-0950_RLatLon0.03_PT010H.grib2 2026-05-06 18:12 1.4M
20260506T12Z_MSC_CAPS_WindU_IsbL-0970_RLatLon0.03_PT010H.grib2 2026-05-06 18:12 1.4M
20260506T12Z_MSC_CAPS_WindU_IsbL-0985_RLatLon0.03_PT010H.grib2 2026-05-06 18:12 1.4M
20260506T12Z_MSC_CAPS_WindU_IsbL-1000_RLatLon0.03_PT010H.grib2 2026-05-06 18:12 1.8M
20260506T12Z_MSC_CAPS_WindU_IsbL-1015_RLatLon0.03_PT010H.grib2 2026-05-06 18:12 1.9M
20260506T12Z_MSC_CAPS_WindV_AGL-10m_RLatLon0.03_PT010H.grib2 2026-05-06 18:12 2.0M
20260506T12Z_MSC_CAPS_WindV_AGL-120m_RLatLon0.03_PT010H.grib2 2026-05-06 18:12 1.2M
20260506T12Z_MSC_CAPS_WindV_AGL-40m_RLatLon0.03_PT010H.grib2 2026-05-06 18:12 1.2M
20260506T12Z_MSC_CAPS_WindV_AGL-80m_RLatLon0.03_PT010H.grib2 2026-05-06 18:12 1.2M
20260506T12Z_MSC_CAPS_WindV_IsbL-0050_RLatLon0.03_PT010H.grib2 2026-05-06 18:12 768K
20260506T12Z_MSC_CAPS_WindV_IsbL-0100_RLatLon0.03_PT010H.grib2 2026-05-06 18:12 782K
20260506T12Z_MSC_CAPS_WindV_IsbL-0150_RLatLon0.03_PT010H.grib2 2026-05-06 18:12 1.0M
20260506T12Z_MSC_CAPS_WindV_IsbL-0175_RLatLon0.03_PT010H.grib2 2026-05-06 18:12 724K
20260506T12Z_MSC_CAPS_WindV_IsbL-0200_RLatLon0.03_PT010H.grib2 2026-05-06 18:12 877K
20260506T12Z_MSC_CAPS_WindV_IsbL-0225_RLatLon0.03_PT010H.grib2 2026-05-06 18:12 896K
20260506T12Z_MSC_CAPS_WindV_IsbL-0250_RLatLon0.03_PT010H.grib2 2026-05-06 18:12 915K
20260506T12Z_MSC_CAPS_WindV_IsbL-0275_RLatLon0.03_PT010H.grib2 2026-05-06 18:12 708K
20260506T12Z_MSC_CAPS_WindV_IsbL-0300_RLatLon0.03_PT010H.grib2 2026-05-06 18:12 717K
20260506T12Z_MSC_CAPS_WindV_IsbL-0350_RLatLon0.03_PT010H.grib2 2026-05-06 18:12 732K
20260506T12Z_MSC_CAPS_WindV_IsbL-0400_RLatLon0.03_PT010H.grib2 2026-05-06 18:12 954K
20260506T12Z_MSC_CAPS_WindV_IsbL-0450_RLatLon0.03_PT010H.grib2 2026-05-06 18:12 970K
20260506T12Z_MSC_CAPS_WindV_IsbL-0500_RLatLon0.03_PT010H.grib2 2026-05-06 18:12 1.0M
20260506T12Z_MSC_CAPS_WindV_IsbL-0550_RLatLon0.03_PT010H.grib2 2026-05-06 18:12 896K
20260506T12Z_MSC_CAPS_WindV_IsbL-0600_RLatLon0.03_PT010H.grib2 2026-05-06 18:12 926K
20260506T12Z_MSC_CAPS_WindV_IsbL-0650_RLatLon0.03_PT010H.grib2 2026-05-06 18:12 963K
20260506T12Z_MSC_CAPS_WindV_IsbL-0700_RLatLon0.03_PT010H.grib2 2026-05-06 18:12 1.0M
20260506T12Z_MSC_CAPS_WindV_IsbL-0750_RLatLon0.03_PT010H.grib2 2026-05-06 18:12 1.1M
20260506T12Z_MSC_CAPS_WindV_IsbL-0800_RLatLon0.03_PT010H.grib2 2026-05-06 18:12 1.1M
20260506T12Z_MSC_CAPS_WindV_IsbL-0850_RLatLon0.03_PT010H.grib2 2026-05-06 18:12 1.2M
20260506T12Z_MSC_CAPS_WindV_IsbL-0875_RLatLon0.03_PT010H.grib2 2026-05-06 18:12 1.2M
20260506T12Z_MSC_CAPS_WindV_IsbL-0900_RLatLon0.03_PT010H.grib2 2026-05-06 18:12 1.3M
20260506T12Z_MSC_CAPS_WindV_IsbL-0925_RLatLon0.03_PT010H.grib2 2026-05-06 18:12 1.3M
20260506T12Z_MSC_CAPS_WindV_IsbL-0950_RLatLon0.03_PT010H.grib2 2026-05-06 18:12 1.4M
20260506T12Z_MSC_CAPS_WindV_IsbL-0970_RLatLon0.03_PT010H.grib2 2026-05-06 18:12 1.4M
20260506T12Z_MSC_CAPS_WindV_IsbL-0985_RLatLon0.03_PT010H.grib2 2026-05-06 18:12 1.4M
20260506T12Z_MSC_CAPS_WindV_IsbL-1000_RLatLon0.03_PT010H.grib2 2026-05-06 18:12 1.8M
20260506T12Z_MSC_CAPS_WindV_IsbL-1015_RLatLon0.03_PT010H.grib2 2026-05-06 18:12 2.0M